Tracking 29892 objects as of 21-Nov-2024
HD Live streaming from Space Station
objects crossing your sky now

STARLINK-1342

Track STARLINK-1342 now!
10-day predictions
STARLINK-1342 is classified as:


NORAD ID: 45558
Int'l Code: 2020-025AD
Perigee: 553.3 km
Apogee: 555.1 km
Inclination: 53.1 °
Period: 95.6 minutes
Semi major axis: 6925 km
RCS: Unknown
Launch date: April 22, 2020
Source: United States (US)
Launch site: AIR FORCE EASTERN TEST RANGE (AFETR)
Your satellite tracking list
Your tracking list is empty




NASA's NSSDC Master Catalog

Two Line Element Set (TLE):
1 45558U 20025AD  24325.63601042  .00012707  00000-0  86948-3 0  9999
2 45558  53.0545  54.7266 0001303  95.3538 264.7600 15.06440818253913
Source of the keplerian elements: AFSPC